Terminal Aerodrome Forecast
Issued by NWS

Home | Current Version | Previous Version | Text Only | Print | Product List | Glossary On
Versions: 1 2 3 4 5 6 7 8 9 10 11 12 13 14 15 16 17 18 19
000
FTUS41 KGYX 111100
TAFLEB
TAF
KLEB 111121Z 1112/1212 00000KT 3SM BR BKN001
     FM111300 VRB03KT P6SM SKC
     FM120700 00000KT 1SM BR BKN001=

USA.gov is the U.S. government's official web portal to all federal, state and local government web resources and services.